Location: Frassino
(44.5667°N, 7.2667°E)
Time: 20:58:40
(UTC+00:00)

Daily predictions for brighter satellites

Satellite Brightness Start Highest point End
(mag) Time Altitude Azimuth Time Altitude Azimuth Time Altitude Azimuth
MOS 1-B Rocket 4.3 19:44:01 10° S 19:50:19 72° WSW 19:56:01 10° NNW
Okean-O 2.7 19:46:55 10° SSE 19:51:18 71° ENE 19:55:42 10° N
Genesis I 2.8 19:48:27 10° SSW 19:51:56 75° SE 19:55:28 10° NE
Cosmos 1092 Rocket 4.1 19:48:30 10° S 19:54:50 89° W 20:01:14 10° N
Cosmos 540 Rocket 4.1 19:51:36 10° N 19:56:32 44° ENE 20:01:26 10° SE
Cosmos 1954 Rocket 4.4 19:54:04 10° S 19:59:01 42° ESE 20:03:58 10° NE
USA 245 4.3 19:57:07 10° SE 20:00:00 28° ENE 20:03:29 10° N
Tiangong -1.6 19:59:04 10° W 20:02:07 44° S 20:05:08 10° ESE
Terra 2.7 19:59:28 10° SE 20:03:44 35° ENE 20:08:02 10° N
Cosmos 1707 3.0 20:03:17 10° SSE 20:06:43 43° E 20:10:10 10° NNE
Cosmos 1515 Rocket 3.5 20:03:16 10° S 20:07:33 71° E 20:11:53 10° NNE
Cosmos 676 Rocket 4.5 20:03:25 10° S 20:08:23 42° ESE 20:13:21 10° NE
SL-4 R/B 2.8 20:04:42 10° W 20:08:23 51° NNW 20:12:17 10° NE
Cosmos 1633 Rocket 4.0 20:06:35 10° NNW 20:10:50 49° W 20:15:02 10° SSW
Cosmos 1190 Rocket 4.0 20:06:56 10° SSW 20:12:12 74° ESE 20:17:31 10° NNE
Okean O Rocket 3.1 20:11:09 10° SSW 20:15:09 34° W 20:19:11 10° NNW
SeaSat 1 2.5 20:12:15 10° SE 20:17:06 72° ENE 20:22:00 10° NNW
Cosmos 1766 3.9 20:14:41 10° NNW 20:18:22 51° W 20:22:00 10° S
EXPRESS MD2 2.2 20:16:33 10° WSW 20:19:49 79° SSE 20:22:06 10° ENE
Cosmos 1470 Rocket 4.1 20:18:33 10° NNW 20:22:51 59° W 20:27:06 10° S
USA 234 3.3 20:16:41 10° NE 20:23:16 84° SE 20:29:48 10° SW
Cosmos 1869 Rocket 4.1 20:21:24 10° N 20:25:39 44° ENE 20:29:11 14° SE
IRS-1A Rocket 4.2 20:23:36 10° SSE 20:29:06 90° N 20:34:39 10° NNW
MOS 1 Rocket 3.9 20:26:39 13° SSE 20:31:22 54° ENE 20:36:34 10° N
Cosmos 2360 Rocket 3.7 20:26:53 10° N 20:31:35 26° NE 20:36:14 10° ESE
Cosmos 2333 Rocket 3.7 20:31:33 10° N 20:36:20 26° NE 20:41:06 10° ESE
Cosmos 841 Rocket 4.1 20:31:45 10° N 20:36:47 44° ENE 20:40:43 16° SE
ERS-1 Rocket 3.0 20:33:11 12° SSE 20:37:54 88° ENE 20:42:57 10° NNW
Atlas Centaur 2 3.9 20:31:16 10° SW 20:38:06 29° S 20:43:36 14° SE
Cosmos 1441 Rocket 3.0 20:35:35 10° N 20:39:12 77° E 20:41:54 17° SSE
SL-16 R/B 2.6 20:34:01 10° NNW 20:39:35 53° ENE 20:43:56 16° SE
Resurs 01 Rocket 4.2 20:37:25 10° SW 20:40:05 16° W 20:42:46 10° NW
Cosmos 1763 Rocket 4.0 20:35:44 10° NNW 20:40:53 58° WSW 20:45:43 11° S
Cosmos 2369 4.4 20:35:34 10° NW 20:41:06 51° WSW 20:46:32 10° S
In-Cosmos 22 4.2 20:36:21 10° S 20:41:58 68° E 20:47:29 10° NNE
Spot 2 Rocket 3.5 20:38:13 15° SSE 20:42:29 73° ENE 20:47:34 10° N
Cosmos 2082 Rocket 3.2 20:37:11 10° SW 20:42:43 50° WNW 20:48:16 10° NNE
RESURS DK-1 3.6 20:39:15 10° N 20:42:51 29° NE 20:45:34 15° ESE
SL-14 R/B 4.3 20:42:16 19° SE 20:44:04 28° E 20:47:20 10° NNE
Cosmos 1933 Rocket 3.9 20:42:47 10° NNW 20:47:11 64° W 20:51:18 12° S
SPOT 5 3.5 20:43:10 10° S 20:47:16 43° W 20:51:26 10° NNW
Cosmos 1470 3.4 20:44:10 10° NNW 20:47:45 49° W 20:51:09 11° S
Cosmos 1417 Rocket 4.5 20:41:54 10° N 20:48:08 82° E 20:53:27 14° S
Cosmos 1300 3.6 20:48:08 10° NNE 20:51:19 30° ENE 20:52:53 21° ESE
Cosmos 1908 3.5 20:51:24 10° NNW 20:54:57 60° W 20:57:41 16° S
Cosmos 1346 Rocket 3.7 20:56:22 10° N 20:59:53 33° ENE 21:01:35 22° ESE
ATLAS 2AS CENTAUR R/B 3.5 20:55:46 10° NNW 21:02:18 44° NE 21:07:52 13° ESE
Meteor 1-22 Rocket 4.2 20:58:30 10° N 21:04:08 87° E 21:08:27 19° S
Ariane Rocket 3.1 21:03:07 17° S 21:07:01 72° WSW 21:12:07 10° NNW
Meteor 1-4 Rocket 4.0 21:09:50 16° E 21:09:50 16° E 21:11:30 10° NE
Cosmos 1758 3.4 21:07:14 10° N 21:11:07 60° E 21:12:54 29° SSE
Cosmos 1356 Rocket 3.6 21:09:23 26° SSE 21:11:30 52° E 21:15:36 10° NNE
SPOT 3 Rocket 3.8 21:12:14 19° S 21:15:58 66° WSW 21:21:08 10° NNW
Cosmos 1850 Rocket 4.0 21:13:25 17° S 21:17:28 64° ESE 21:22:38 10° NNE
Cosmos 1707 Rocket 3.6 21:16:09 25° SSE 21:18:35 63° E 21:22:59 10° NNE
SL-27 R/B 2.7 21:19:33 33° E 21:19:33 33° E 21:21:49 10° NE
ARIANE 5 R/B 4.0 21:17:31 18° ESE 21:19:28 25° ENE 21:23:01 10° N
Cosmos 1980 Rocket 4.4 21:19:49 10° WNW 21:23:27 18° W 21:27:05 10° SW
S3M 4.3 21:17:52 10° NNW 21:24:11 65° W 21:29:07 17° S
Cosmos 2322 Rocket 2.3 21:18:31 10° NNW 21:24:13 74° ENE 21:27:28 27° SE
Meteor 1-21 4.3 21:21:06 22° S 21:24:54 66° E 21:30:40 10° NNE
Spot 1 4.2 21:20:36 10° NNE 21:25:06 90° NW 21:28:33 19° SSW
Okean 2 4.5 21:24:44 25° ESE 21:25:27 26° E 21:28:50 10° NNE
Cosmos 1655 Rocket 4.1 21:22:56 15° S 21:28:20 87° W 21:34:48 10° N
SJ 16-02 1.9 21:28:54 32° SE 21:29:58 38° ESE 21:33:58 10° NE
Landsat 5 3.5 21:28:31 10° N 21:32:30 77° WNW 21:35:02 23° SSW
Cosmos 2278 4.3 21:27:31 10° NW 21:33:00 48° WSW 21:36:26 22° S
Cosmos 1741 Rocket 4.0 21:31:50 17° SSW 21:36:00 88° ESE 21:41:20 10° NNE
USA 281 3.6 21:32:45 22° SE 21:36:57 56° ENE 21:43:22 10° NNW
Tiangong -0.1 21:36:08 10° WSW 21:37:28 17° SW 21:37:28 17° SW
Cosmos 1400 Rocket 4.0 21:35:14 12° SW 21:38:32 38° WNW 21:42:10 10° N
MetOp-A 4.1 21:37:25 28° S 21:40:13 75° WSW 21:45:30 10° NNW
Okean 3 3.3 21:39:26 37° S 21:40:57 71° E 21:45:05 10° NNE
Terra 3.5 21:37:47 12° SSW 21:41:22 26° W 21:45:21 10° NW
COSMOS 2428 4.4 21:37:34 10° N 21:42:05 24° NE 21:46:15 11° E
Cosmos 1733 Rocket 3.1 21:37:58 10° N 21:42:23 78° W 21:44:16 34° S
GP-B 4.0 21:39:41 10° NNE 21:43:42 33° E 21:44:46 29° ESE
Cosmos 968 Rocket 3.4 21:41:01 25° S 21:44:02 76° ESE 21:49:13 10° NNE
Cosmos 1814 Rocket 4.2 21:42:21 10° NNW 21:47:37 62° ENE 21:50:00 32° SE
Cosmos 2228 Rocket 3.6 21:44:42 20° SSW 21:47:42 57° WNW 21:52:14 10° N
SL-4 R/B 3.9 21:44:16 10° WNW 21:47:45 29° N 21:51:25 10° ENE
Cosmos 1315 Rocket 3.0 21:51:04 45° SE 21:51:47 52° E 21:55:40 10° NNE
Meteor 2-20 Rocket 4.5 21:45:28 10° N 21:51:49 73° E 21:54:48 32° SSE
Cosmos 2219 Rocket 2.7 21:47:22 10° NNW 21:52:55 51° ENE 21:55:47 27° ESE
ATLAS CENTAUR R/B 0.9 21:52:13 32° SW 21:53:42 79° NW 21:57:17 10° NNE
Cosmos 1908 Rocket 4.1 21:49:32 10° N 21:53:43 44° ENE 21:54:53 35° ESE
Cosmos 1244 Rocket 4.5 21:52:53 29° S 21:56:13 74° E 22:02:31 10° NNE
Meteor 2-10 Rocket 4.5 21:52:05 10° NNW 21:57:22 44° W 22:00:34 21° SSW
Cosmos 1953 2.4 21:56:26 10° N 22:00:13 55° E 22:00:51 48° ESE
H-2A R/B 3.5 21:59:30 30° ESE 22:00:47 37° ENE 22:04:44 10° N
Cosmos 1242 Rocket 3.7 22:04:20 23° ENE 22:04:20 23° ENE 22:05:49 10° NNE
Cosmos 1455 2.2 22:00:00 10° N 22:03:26 51° E 22:03:41 49° E
Okean 1-7 2.9 22:04:58 46° S 22:06:12 83° E 22:10:33 10° N
BREEZE-M DEB (TANK) 2.3 22:06:54 10° WNW 22:09:09 68° SSW 22:09:09 68° SSW
CZ-2C R/B 3.5 22:05:44 10° NNE 22:10:10 88° ESE 22:11:36 43° SSW
CZ-4C R/B 3.8 22:11:44 13° E 22:11:44 13° E 22:13:15 10° ENE
ALOS 2 3.9 22:11:53 25° E 22:13:13 31° ENE 22:17:04 10° N
Cosmos 2360 Rocket 2.5 22:10:23 10° NNW 22:15:57 58° WSW 22:18:06 36° S
Cosmos 1300 Rocket 4.5 22:14:30 10° N 22:18:27 34° ENE 22:19:20 31° E
RESURS DK-1 3.7 22:17:03 10° NW 22:20:29 26° WSW 22:21:10 25° SW
Cosmos 2333 Rocket 2.5 22:15:21 10° NNW 22:21:00 58° WSW 22:23:08 36° S
SL-16 R/B 3.7 22:18:47 10° NW 22:23:17 25° WSW 22:25:47 18° SW
H-2A R/B 4.2 22:21:27 10° ENE 22:23:29 13° E 22:23:29 13° E
Atlas Centaur 2 4.0 22:20:02 10° WSW 22:25:50 24° SSW 22:25:50 24° SSW
SL-08 R/B 4.4 22:25:46 32° SSW 22:28:44 80° W 22:34:52 10° N
OPS 8737 4.5 22:26:11 10° NW 22:28:45 63° N 22:28:45 63° N
BREEZE-M DEB (TANK) 4.3 22:17:12 10° W 22:32:14 59° NNW 22:36:14 10° ENE
Cosmos 1703 Rocket 3.6 22:32:44 50° SSW 22:33:51 78° W 22:38:20 10° N
Cosmos 2242 Rocket 4.2 22:36:20 40° ESE 22:36:55 42° E 22:41:13 10° NNE
DNEPR-1 R/B 4.2 22:31:23 10° NW 22:38:02 84° SW 22:39:56 44° SSE
Meteor 1-4 Rocket 4.2 22:41:49 19° W 22:42:15 20° WNW 22:44:33 10° NNW
Cosmos 839 Rocket 4.2 22:38:52 10° NW 22:45:34 62° WSW 22:47:42 40° S
Cosmos 2322 3.7 22:41:48 10° NNW 22:47:31 79° ENE 22:49:30 42° SE
BlueWalker 3 3.4 22:50:03 25° E 22:50:03 25° E 22:51:52 10° ENE
Cosmos 2237 Rocket 3.7 22:43:37 10° N 22:48:33 30° NE 22:52:21 15° ESE
ATLAS 2AS CENTAUR R/B 3.1 22:46:51 10° NW 22:53:14 45° WSW 22:55:16 35° SSW
Cosmos 2227 Rocket 4.0 22:53:35 16° ESE 22:54:15 16° E 22:57:35 10° ENE
Cosmos 405 Rocket 4.4 22:52:28 10° NNE 22:55:29 23° ENE 22:55:58 22° E
ARIANE 5 R/B 3.7 22:54:59 30° WSW 22:55:43 32° W 22:59:38 10° NNW
SL-24 R/B - RUBIN 2 4.4 22:52:54 10° NW 22:59:27 70° WSW 23:01:28 44° S
Meteor 2-5 Rocket 4.1 23:03:32 41° SE 23:05:16 56° E 23:10:59 10° NNE
Cosmos 1703 3.4 23:06:48 57° ENE 23:06:48 57° ENE 23:10:12 10° NNE
Cosmos 2322 Rocket 4.0 23:04:01 10° WNW 23:07:34 17° W 23:09:15 15° WSW
Cosmos 1745 Rocket 4.2 23:05:10 35° SSW 23:07:56 66° W 23:14:18 10° N
Cosmos 1570 Rocket 4.1 23:02:48 10° NNW 23:08:07 66° WSW 23:09:22 50° SSW
SJ 16-02 3.4 23:05:36 12° WSW 23:08:26 22° WNW 23:11:50 10° N
PSLV R/B 3.6 23:04:33 10° NNE 23:08:46 59° ESE 23:08:58 58° ESE
COSMOS 2455 2.9 23:08:58 45° S 23:10:37 62° ESE 23:16:34 10° NE
Cosmos 2297 Rocket 2.6 23:13:10 40° SE 23:14:11 45° ESE 23:19:33 10° NE
Nadezhda 1 Rocket 4.5 23:13:22 10° NNW 23:19:25 49° W 23:21:42 34° SW
Cosmos 2181 Rocket 4.3 23:13:42 10° N 23:19:50 58° ENE 23:22:13 36° SE
Cosmos 1408 3.5 23:22:14 33° NW 23:22:14 33° NW 23:24:25 10° N
USA 281 4.3 23:19:37 26° SW 23:21:42 30° WSW 23:27:25 10° NW
COSMOS 2428 2.8 23:21:10 10° NNW 23:26:49 65° WSW 23:28:13 48° SSW
SL-4 R/B 3.2 23:23:17 10° NW 23:27:13 42° NNE 23:31:20 10° E
GEOS 3 Rocket 3.5 23:25:10 10° NE 23:30:20 70° SE 23:31:28 52° S
ATLAS CENTAUR R/B 4.2 23:30:53 10° NW 23:32:00 11° NNW 23:33:09 10° NNW
CZ-3 Stage 3 4.3 23:17:48 10° W 23:35:47 29° SW 23:37:06 28° SSW
H-2A R/B 4.2 23:35:29 22° W 23:35:48 22° W 23:39:08 10° NW
Cosmos 2074 Rocket 4.4 23:33:38 35° SE 23:35:48 50° E 23:41:46 10° NNE
Cosmos 2219 Rocket 3.5 23:31:56 10° NW 23:36:30 25° WSW 23:37:28 24° WSW
Cosmos 1892 3.4 23:38:13 40° ENE 23:38:13 40° ENE 23:41:11 10° NNE
Cosmos 2208 Rocket 4.4 23:33:49 10° NNW 23:38:46 46° WSW 23:39:34 43° SW
Cosmos 371 Rocket 3.3 23:38:59 53° SW 23:40:02 75° WNW 23:44:52 10° NNE
Cosmos 158 Rocket 4.4 23:36:12 10° NNW 23:41:16 48° WSW 23:42:08 44° SW
Cosmos 773 Rocket 3.9 23:43:34 10° NNW 23:48:43 77° WSW 23:49:51 54° S
Cosmos 2151 Rocket 3.4 23:45:03 10° N 23:49:28 81° E 23:50:03 66° SSE
ALOS 2 3.9 23:49:16 27° WSW 23:49:32 27° W 23:53:17 10° NW
Cosmos 2263 Rocket 3.9 23:50:27 16° ESE 23:51:56 18° E 23:55:34 10° ENE
Cosmos 1503 Rocket 4.0 23:51:55 47° SW 23:53:27 78° WNW 23:58:48 10° NNE
